This demonstration page uses our WeatherBlox Daily Observations layout. Learn more.

Left ArrowRight Arrow

34.02893, -84.19858

Hourly Observations for August 3, 2015

Temp ( °F °C ) Dew Point ( °F °C ) Humidity (%) Winds ( mph kmh ) Pressure ( in mb ) Visibility ( mi km ) Precip ( " mm )
12:53 am 00:53 Clear 77 25 67 19.4 71 71 S 3 6 29.86 1011 10 16 0.00 0.00
1:53 am 01:53 Mostly Cloudy 76 24.4 68 20 77 77 Calm 29.85 1011 10 16 0.00 0.00
2:53 am 02:53 Mostly Cloudy 75 23.9 68 20 79 79 Calm 29.84 1011 10 16 0.00 0.00
3:53 am 03:53 Clear 74 23.3 68 20 82 82 Calm 29.84 1010 10 16 0.00 0.00
4:53 am 04:53 Clear 72 22.2 68 20 87 87 Calm 29.83 1010 10 16 0.00 0.00
5:53 am 05:53 Clear 73 22.8 68 20 84 84 Calm 29.83 1010 10 16 0.00 0.00
6:53 am 06:53 Sunny 71 21.7 67 19.4 87 87 Calm 29.86 1011 9 14 0.00 0.00
7:53 am 07:53 Sunny 74 23.3 68 20 82 82 Calm 29.88 1012 9 14 0.00 0.00
8:53 am 08:53 Sunny 77 25 69 20.6 77 77 VRB 3 6 29.90 1013 10 16 0.00 0.00
9:53 am 09:53 Sunny 82 27.8 70 21.1 67 67 VRB 3 6 29.91 1013 10 16 0.00 0.00
10:53 am 10:53 Sunny 84 28.9 70 21.1 63 63 Calm 29.91 1013 10 16 0.00 0.00
11:53 am 11:53 Sunny 88 31.1 69 20.6 54 54 Calm 29.90 1013 10 16 0.00 0.00
12:53 pm 12:53 Mostly Cloudy 90 32.2 68 20 48 48 VRB 3 6 29.88 1012 10 16 0.00 0.00
1:53 pm 13:53 Partly Cloudy 93 33.9 65 18.3 40 40 VRB 3 6 29.87 1012 10 16 0.00 0.00
2:53 pm 14:53 Mostly Sunny 95 35 63 17.2 35 35 Calm 29.86 1011 10 16 0.00 0.00
3:53 pm 15:53 Sunny 96 35.6 62 16.7 32 32 VRB 3 6 29.85 1011 10 16 0.00 0.00
4:53 pm 16:53 Sunny 93 33.9 63 17.2 37 37 Calm 29.85 1011 10 16 0.00 0.00
5:53 pm 17:53 Cloudy 94 34.4 61 16.1 33 33 N 5 7 29.84 1011 10 16 0.00 0.00
6:53 pm 18:53 Mostly Cloudy 92 33.3 61 16.1 36 36 Calm 29.85 1011 10 16 0.00 0.00
7:53 pm 19:53 Cloudy 91 32.8 65 18.3 42 42 Calm 29.85 1011 10 16 0.00 0.00
8:53 pm 20:53 Cloudy 89 31.7 65 18.3 45 45 Calm 29.86 1011 10 16 0.00 0.00
9:53 pm 21:53 Mostly Cloudy 81 27.2 68 20 65 65 SSW 3 6 29.88 1012 10 16 0.00 0.00
10:53 pm 22:53 Clear 81 27.2 68 20 65 65 Calm 29.89 1012 10 16 0.00 0.00
11:53 pm 23:53 Clear 79 26.1 68 20 69 69 Calm 29.89 1012 10 16 0.00 0.00

Powered by AerisWeather